Заамин

Узбекистан     39°57′42″N   68°23′47″E
темп.,
°C
ветер,
м/с
пор.,
м/с
влажн.,
%
обл.,
%
осадки,
мм/ч
давл.,
гПа
погр.,
м
27 февраля, сб
сб2723:00−8юв117582 0.0 102923
02:00−6юз1172100 0.0 102724
05:00−5юз2271100 0.0 102722
08:00−3ююз0165100 0.1 102821
11:000в2358100 0.1 1029279
14:00+2в3567100 0.0 1027469
17:00+1всв126667 0.0 102749
20:00−2ююв23600 0.0 103022
28 февраля, вс
вс2823:00−2юв23550 0.0 102945
02:00−2ююв11530 0.0 102738
05:00−2юв11490 0.0 102623
08:00−1юв11490 0.0 102435
11:00+4в22580 0.0 1022170
14:00+6всв22520 0.0 1019321
17:00+5всв11660 0.0 101880
20:00+2ююв11710 0.0 102022
1 марта, пн
пн123:00+2юв016831 0.0 102122
02:00+2ююв0164100 0.0 102122
05:00+2ююв1154100 0.0 102022
08:00+4ююв1138100 0.0 102122
11:00+11всв123275 0.0 1019145
14:00+14св11310 0.0 1018269
17:00+13вюв22440 0.0 101867
20:00+8ю12330 0.0 102123
2 марта, вт
вт223:00+8ююз333417 0.0 102124
02:00+7ююв2229100 0.0 102123
05:00+6ююв1130100 0.0 102023
08:00+8зюз2336100 0.0 102225
11:00+12зсз2233100 0.0 1021290
14:00+14св1129100 0.0 1020517
17:00+13сз3335100 0.0 1020531
20:00+10з2249100 0.0 102133
3 марта, ср
ср323:00+8зюз2251100 0.0 102223
02:00+8зсз1153100 0.0 102123
05:00+7зюз2259100 0.0 102126
08:00+7юв1260100 0.0 102132
11:00+10с114897 0.0 1020667
14:00+11ссз435499 0.0 1019916
17:00+8ссв347799 0.0 1018522
20:00+7всв4588100 0.1 1019350